Погода в Солнечном

Россия / Республика Хакасия     53°41′20″N   91°10′54″E
темп.,
°C
ветер,
м/с
пор.,
м/с
влажн.,
%
обл.,
%
осадки,
мм/ч
давл.,
гПа
погр.,
м
17 апреля, сб
сб1701:00+9ююз61368100 0.0 1011311
04:00+10юз61263100 0.0 1010369
07:00+1с71287100 1.3 1014539
10:000с51091100 4.3 1016819
13:00+1ссв2590100 6.1 1018574
16:00+3ссв5553100 0.2 10201381
19:00+2ссв445797 0.2 1022989
22:00−1с3667100 0.0 1024304
18 апреля, вс
вс1801:00−1с0169100 0.0 102513
04:00−2ю1273100 0.0 102482
07:00−2ю2478100 0.0 1023378
10:00+1ю3472100 0.0 1020663
13:00+3ююз4566100 0.0 1018710
16:00+7юз4748100 0.0 10151472
19:00+6зюз3649100 0.0 1013140
22:00+4юз51162100 0.0 1013319
19 апреля, пн
пн1901:00+4ююз3973100 0.0 1008243
04:00+3ю4978100 0.0 1003213
07:00+7юз7156963 0.0 1001647
10:00+5зюз132340100 0.1 10071937
13:00+4з1114324 0.1 10141934
16:00+4зсз793092 0.0 10172503
19:00+2сз6734100 0.0 10201575
22:00−2ссз574694 0.0 1023877
20 апреля, вт
вт2001:00−3ссз3544100 0.0 1024908
04:00−4ссз3343100 0.0 10251115
07:00−5ссз3353100 0.0 1026996
10:00−3с2245100 0.0 10261347
13:000в033196 0.0 10241926
16:00+1всв332894 0.0 10222180
19:00−1св553143 0.0 10221126
22:00−2ссв3635100 0.0 1023576
21 апреля, ср
ср2101:00−3ссв4644100 0.0 1023495
04:00−4с3548100 0.0 1024363
07:00−4с344489 0.0 1025432
10:00−1сз123461 0.0 10261562
13:00+1ю1229100 0.0 10252124
16:00+2вюв2228100 0.0 10242100
19:00+2всв3226100 0.0 10252099
22:000всв4738100 0.0 1027567